Time,TemperatureF,DewpointF,PressureIn,WindDirection,WindDirectionDegrees,WindSpeedMPH,WindSpeedGustMPH,Humidity,HourlyPrecipIn,Conditions,Clouds,dailyrainin,SoftwareType,DateUTC
2013-09-20 00:01:00,67.6,66.1,29.85,SE,125,6.3,6.3,95,0.00,,---,0.00,VWS V14.01,2013-09-20 04:01:00,
2013-09-20 00:02:00,67.6,66.1,29.85,SW,215,5.3,5.3,95,0.00,,---,0.00,VWS V14.01,2013-09-20 04:02:00,
2013-09-20 00:03:00,67.6,66.1,29.85,SE,125,9.3,9.3,95,0.00,,---,0.00,VWS V14.01,2013-09-20 04:03:00,
2013-09-20 00:04:00,67.6,66.1,29.85,SE,125,4.3,9.3,95,0.00,,---,0.00,VWS V14.01,2013-09-20 04:04:00,
2013-09-20 00:08:00,67.6,66.1,29.85,NW,305,4.3,6.3,95,0.00,,---,0.00,VWS V14.01,2013-09-20 04:08:00,
2013-09-20 00:13:00,67.6,66.1,29.85,SE,125,3.0,3.6,95,0.00,,---,0.00,VWS V14.01,2013-09-20 04:13:00,
2013-09-20 00:18:00,67.8,66.3,29.85,SE,125,3.6,3.6,95,0.00,,---,0.00,VWS V14.01,2013-09-20 04:18:00,
2013-09-20 00:23:00,67.8,66.3,29.85,ESE,102,5.3,5.3,95,0.00,,---,0.00,VWS V14.01,2013-09-20 04:23:00,
2013-09-20 00:28:00,67.8,66.3,29.85,SE,125,6.3,6.3,95,0.00,,---,0.00,VWS V14.01,2013-09-20 04:28:00,
2013-09-20 00:33:00,67.9,66.8,29.85,West,260,8.3,8.3,96,0.00,,---,0.00,VWS V14.01,2013-09-20 04:33:00,
2013-09-20 00:38:00,67.9,66.8,29.85,SE,125,4.0,4.0,96,0.00,,---,0.00,VWS V14.01,2013-09-20 04:38:00,
2013-09-20 00:43:00,67.9,66.8,29.85,SE,125,3.0,3.0,96,0.00,,---,0.00,VWS V14.01,2013-09-20 04:43:00,
2013-09-20 00:48:00,68.1,66.9,29.85,SE,125,1.7,1.7,96,0.00,,---,0.00,VWS V14.01,2013-09-20 04:48:00,
2013-09-20 00:53:00,68.1,66.9,29.85,SE,125,4.3,5.0,96,0.00,,---,0.00,VWS V14.01,2013-09-20 04:53:00,
2013-09-20 00:58:00,68.3,67.1,29.85,SE,125,6.0,6.0,96,0.00,,---,0.00,VWS V14.01,2013-09-20 04:58:00,
2013-09-20 01:03:00,68.3,67.1,29.85,SE,125,7.3,8.6,96,0.00,,---,0.00,VWS V14.01,2013-09-20 05:03:00,
2013-09-20 01:08:00,68.5,67.3,29.85,ESE,102,3.6,3.6,96,0.00,,---,0.00,VWS V14.01,2013-09-20 05:08:00,
2013-09-20 01:13:00,68.7,67.5,29.85,SE,125,5.6,5.6,96,0.00,,---,0.00,VWS V14.01,2013-09-20 05:13:00,
2013-09-20 01:18:00,68.8,67.7,29.85,ESE,102,5.3,5.3,96,0.00,,---,0.00,VWS V14.01,2013-09-20 05:18:00,
2013-09-20 01:23:00,68.8,67.7,29.85,SW,215,3.0,3.6,96,0.00,,---,0.00,VWS V14.01,2013-09-20 05:23:00,
2013-09-20 01:28:00,69.0,67.8,29.85,NE,35,4.3,4.3,96,0.00,,---,0.00,VWS V14.01,2013-09-20 05:28:00,
2013-09-20 01:33:00,69.2,68.0,29.85,SW,215,5.0,8.3,96,0.00,,---,0.00,VWS V14.01,2013-09-20 05:33:00,
2013-09-20 01:38:00,69.4,68.2,29.85,SE,125,3.6,3.6,96,0.00,,---,0.00,VWS V14.01,2013-09-20 05:38:00,
2013-09-20 01:43:00,69.4,68.2,29.85,SW,215,8.3,11.6,96,0.00,,---,0.00,VWS V14.01,2013-09-20 05:43:00,
2013-09-20 01:48:00,69.6,68.4,29.85,SE,125,3.6,3.6,96,0.00,,---,0.00,VWS V14.01,2013-09-20 05:48:00,
2013-09-20 01:53:00,69.7,68.6,29.85,SW,215,4.6,4.6,96,0.00,,---,0.00,VWS V14.01,2013-09-20 05:53:00,
2013-09-20 01:58:00,69.9,68.7,29.85,SW,215,3.6,3.6,96,0.00,,---,0.00,VWS V14.01,2013-09-20 05:58:00,
2013-09-20 02:03:00,69.9,68.7,29.85,SE,125,6.3,6.3,96,0.00,,---,0.00,VWS V14.01,2013-09-20 06:03:00,
2013-09-20 02:08:00,70.1,68.9,29.85,WSW,238,1.7,2.0,96,0.00,,---,0.00,VWS V14.01,2013-09-20 06:08:00,
2013-09-20 02:13:00,70.1,68.9,29.85,SW,215,3.0,6.3,96,0.00,,---,0.00,VWS V14.01,2013-09-20 06:13:00,
2013-09-20 02:18:00,70.1,68.9,29.85,SW,215,2.3,2.3,96,0.00,,---,0.00,VWS V14.01,2013-09-20 06:18:00,
2013-09-20 02:24:00,70.1,68.9,29.85,SW,215,4.0,4.0,96,0.00,,---,0.00,VWS V14.01,2013-09-20 06:24:00,
2013-09-20 02:29:00,70.1,68.9,29.85,SW,215,2.0,2.0,96,0.00,,---,0.00,VWS V14.01,2013-09-20 06:29:00,
2013-09-20 02:34:00,70.5,69.3,29.85,SW,215,3.0,3.0,96,0.00,,---,0.00,VWS V14.01,2013-09-20 06:34:00,
2013-09-20 02:39:00,70.6,69.4,29.85,West,260,3.0,3.0,96,0.00,,---,0.00,VWS V14.01,2013-09-20 06:39:00,
2013-09-20 02:44:00,70.6,69.4,29.82,SE,125,0.0,2.0,96,0.00,,---,0.00,VWS V14.01,2013-09-20 06:44:00,
2013-09-20 02:49:00,70.6,69.4,29.82,WSW,238,6.3,6.3,96,0.00,,---,0.00,VWS V14.01,2013-09-20 06:49:00,
2013-09-20 02:54:00,70.6,69.4,29.82,SW,215,1.7,2.3,96,0.00,,---,0.00,VWS V14.01,2013-09-20 06:54:00,
2013-09-20 02:59:00,70.5,69.3,29.82,SW,215,3.0,4.0,96,0.00,,---,0.00,VWS V14.01,2013-09-20 06:59:00,
2013-09-20 03:04:00,70.5,69.3,29.82,SE,125,2.3,2.3,96,0.00,,---,0.00,VWS V14.01,2013-09-20 07:04:00,
2013-09-20 03:09:00,70.3,69.1,29.82,West,260,4.6,4.6,96,0.00,,---,0.00,VWS V14.01,2013-09-20 07:09:00,
2013-09-20 03:14:00,70.3,69.1,29.82,SE,125,0.0,0.0,96,0.00,,---,0.00,VWS V14.01,2013-09-20 07:14:00,
2013-09-20 03:19:00,70.1,68.9,29.82,SE,125,2.0,2.0,96,0.00,,---,0.00,VWS V14.01,2013-09-20 07:19:00,
2013-09-20 03:24:00,70.1,68.9,29.82,SW,215,0.0,0.0,96,0.00,,---,0.00,VWS V14.01,2013-09-20 07:24:00,
2013-09-20 03:29:00,70.1,68.9,29.82,SE,125,1.3,1.3,96,0.00,,---,0.00,VWS V14.01,2013-09-20 07:29:00,
2013-09-20 03:34:00,70.1,68.9,29.82,SE,125,0.0,0.0,96,0.00,,---,0.00,VWS V14.01,2013-09-20 07:34:00,
2013-09-20 03:39:00,69.9,68.7,29.82,ESE,102,0.0,2.3,96,0.00,,---,0.00,VWS V14.01,2013-09-20 07:39:00,
2013-09-20 03:44:00,69.9,68.7,29.82,SE,125,2.0,2.0,96,0.00,,---,0.00,VWS V14.01,2013-09-20 07:44:00,
2013-09-20 03:49:00,69.7,68.6,29.82,SE,125,0.0,3.3,96,0.00,,---,0.00,VWS V14.01,2013-09-20 07:49:00,
2013-09-20 03:54:00,69.7,68.6,29.82,SE,125,3.3,4.0,96,0.00,,---,0.00,VWS V14.01,2013-09-20 07:54:00,
2013-09-20 03:59:00,69.7,68.6,29.82,SE,125,3.6,3.6,96,0.00,,---,0.00,VWS V14.01,2013-09-20 07:59:00,
2013-09-20 04:04:00,69.7,68.6,29.82,ESE,102,2.3,2.3,96,0.00,,---,0.00,VWS V14.01,2013-09-20 08:04:00,
2013-09-20 04:09:00,69.7,68.6,29.82,SE,125,3.0,3.6,96,0.00,,---,0.00,VWS V14.01,2013-09-20 08:09:00,
2013-09-20 04:14:00,69.7,68.6,29.82,SE,125,4.0,4.0,96,0.00,,---,0.00,VWS V14.01,2013-09-20 08:14:00,
2013-09-20 04:19:00,69.7,68.6,29.82,SE,125,3.6,3.6,96,0.00,,---,0.00,VWS V14.01,2013-09-20 08:19:00,
2013-09-20 04:24:00,69.9,68.7,29.82,SW,215,2.3,2.3,96,0.00,,---,0.00,VWS V14.01,2013-09-20 08:24:00,
2013-09-20 04:29:00,69.9,68.7,29.82,SE,125,3.6,3.6,96,0.00,,---,0.00,VWS V14.01,2013-09-20 08:29:00,
2013-09-20 04:34:00,69.9,69.0,29.82,West,260,0.0,3.0,97,0.00,,---,0.00,VWS V14.01,2013-09-20 08:34:00,
2013-09-20 04:39:00,69.9,69.0,29.82,SE,125,3.6,5.3,97,0.00,,---,0.00,VWS V14.01,2013-09-20 08:39:00,
2013-09-20 04:44:00,70.1,69.2,29.82,SE,125,3.3,3.3,97,0.00,,---,0.00,VWS V14.01,2013-09-20 08:44:00,
2013-09-20 04:49:00,70.1,69.2,29.82,East,80,2.3,4.0,97,0.09,,---,0.09,VWS V14.01,2013-09-20 08:49:00,
2013-09-20 04:54:00,70.3,69.4,29.82,SW,215,1.3,1.3,97,0.09,,---,0.09,VWS V14.01,2013-09-20 08:54:00,
2013-09-20 04:59:00,70.3,69.4,29.79,SW,215,1.7,4.0,97,0.09,,---,0.09,VWS V14.01,2013-09-20 08:59:00,
2013-09-20 05:05:00,70.3,69.4,29.79,ESE,102,2.3,2.3,97,0.09,,---,0.09,VWS V14.01,2013-09-20 09:05:00,
2013-09-20 05:10:00,70.3,69.4,29.79,SE,125,2.0,4.3,97,0.09,,---,0.09,VWS V14.01,2013-09-20 09:10:00,
2013-09-20 05:15:00,70.1,69.2,29.79,SE,125,3.0,5.6,97,0.09,,---,0.09,VWS V14.01,2013-09-20 09:15:00,
2013-09-20 05:20:00,70.1,69.2,29.79,SE,125,7.3,7.3,97,0.09,,---,0.09,VWS V14.01,2013-09-20 09:20:00,
2013-09-20 05:25:00,70.3,69.4,29.79,SE,125,4.3,4.3,97,0.09,,---,0.09,VWS V14.01,2013-09-20 09:25:00,
2013-09-20 05:30:00,70.3,69.4,29.79,SE,125,4.3,4.3,97,0.09,,---,0.09,VWS V14.01,2013-09-20 09:30:00,
2013-09-20 05:35:00,70.3,69.4,29.79,SW,215,4.6,4.6,97,0.09,,---,0.09,VWS V14.01,2013-09-20 09:35:00,
2013-09-20 05:40:00,70.3,69.4,29.79,SE,125,3.6,3.6,97,0.09,,---,0.09,VWS V14.01,2013-09-20 09:40:00,
2013-09-20 05:45:00,70.3,69.4,29.79,SE,125,3.6,3.6,97,0.09,,---,0.09,VWS V14.01,2013-09-20 09:45:00,
2013-09-20 05:50:00,70.3,69.4,29.79,SE,125,3.6,3.6,97,0.00,,---,0.09,VWS V14.01,2013-09-20 09:50:00,
2013-09-20 05:55:00,70.1,69.2,29.79,WSW,238,3.0,3.0,97,0.00,,---,0.09,VWS V14.01,2013-09-20 09:55:00,
2013-09-20 06:00:00,70.1,69.2,29.79,SE,125,2.3,2.3,97,0.00,,---,0.09,VWS V14.01,2013-09-20 10:00:00,
2013-09-20 06:05:00,70.1,69.2,29.79,SE,125,8.3,8.3,97,0.00,,---,0.09,VWS V14.01,2013-09-20 10:05:00,
2013-09-20 06:10:00,70.1,69.2,29.79,SE,125,2.3,3.0,97,0.00,,---,0.09,VWS V14.01,2013-09-20 10:10:00,
2013-09-20 06:15:00,69.9,69.0,29.79,SE,125,7.9,7.9,97,0.00,,---,0.09,VWS V14.01,2013-09-20 10:15:00,
2013-09-20 06:20:00,69.9,69.0,29.79,West,260,0.0,0.0,97,0.00,,---,0.09,VWS V14.01,2013-09-20 10:20:00,
2013-09-20 06:25:00,69.9,69.0,29.79,SW,215,5.6,5.6,97,0.00,,---,0.09,VWS V14.01,2013-09-20 10:25:00,
2013-09-20 06:30:00,69.9,69.0,29.79,SE,125,0.0,0.0,97,0.00,,---,0.09,VWS V14.01,2013-09-20 10:30:00,
2013-09-20 06:35:00,69.7,68.8,29.79,WSW,238,3.6,3.6,97,0.00,,---,0.09,VWS V14.01,2013-09-20 10:35:00,
2013-09-20 06:40:00,69.7,68.8,29.79,SW,215,2.0,2.0,97,0.00,,---,0.09,VWS V14.01,2013-09-20 10:40:00,
2013-09-20 06:45:00,69.9,69.0,29.79,SE,125,0.0,0.0,97,0.00,,---,0.09,VWS V14.01,2013-09-20 10:45:00,
2013-09-20 06:50:00,69.9,69.0,29.79,West,260,3.6,3.6,97,0.00,,---,0.09,VWS V14.01,2013-09-20 10:50:00,
2013-09-20 06:55:00,69.9,69.0,29.79,ESE,102,3.6,4.0,97,0.00,,---,0.09,VWS V14.01,2013-09-20 10:55:00,
2013-09-20 07:00:00,69.9,69.0,29.79,SE,125,3.6,3.6,97,0.00,,---,0.09,VWS V14.01,2013-09-20 11:00:00,
2013-09-20 07:05:00,69.9,69.0,29.79,SW,215,1.7,6.0,97,0.00,,---,0.09,VWS V14.01,2013-09-20 11:05:00,
2013-09-20 07:10:00,69.7,68.8,29.79,North,350,1.7,1.7,97,0.00,,---,0.09,VWS V14.01,2013-09-20 11:10:00,
2013-09-20 07:15:00,69.9,69.0,29.79,SE,125,4.0,5.6,97,0.00,,---,0.09,VWS V14.01,2013-09-20 11:15:00,
2013-09-20 07:20:00,69.9,69.3,29.79,West,260,6.0,6.0,98,0.00,,---,0.09,VWS V14.01,2013-09-20 11:20:00,
2013-09-20 07:25:00,69.9,69.0,29.79,West,260,1.3,6.0,97,0.00,,---,0.09,VWS V14.01,2013-09-20 11:25:00,
2013-09-20 07:30:00,69.9,69.0,29.79,NW,305,0.0,2.0,97,0.00,,---,0.09,VWS V14.01,2013-09-20 11:30:00,
2013-09-20 07:35:00,69.9,69.3,29.79,SW,215,1.7,3.6,98,0.00,,---,0.09,VWS V14.01,2013-09-20 11:35:00,
2013-09-20 07:40:00,69.9,69.3,29.79,SW,215,3.6,5.6,98,0.00,,---,0.09,VWS V14.01,2013-09-20 11:40:00,
2013-09-20 07:45:00,69.9,69.3,29.82,West,260,0.0,3.3,98,0.00,,---,0.09,VWS V14.01,2013-09-20 11:45:00,
2013-09-20 07:50:00,70.1,69.5,29.82,SE,125,4.3,4.3,98,0.00,,---,0.09,VWS V14.01,2013-09-20 11:50:00,
2013-09-20 07:55:00,70.1,69.5,29.82,SW,215,5.0,5.0,98,0.00,,---,0.09,VWS V14.01,2013-09-20 11:55:00,
2013-09-20 08:01:00,69.9,69.3,29.79,SW,215,3.6,3.6,98,0.00,,---,0.09,VWS V14.01,2013-09-20 12:01:00,
2013-09-20 08:06:00,70.1,69.5,29.79,SW,215,4.6,4.6,98,0.00,,---,0.09,VWS V14.01,2013-09-20 12:06:00,
2013-09-20 08:11:00,69.9,69.3,29.79,SW,215,5.6,5.6,98,0.00,,---,0.09,VWS V14.01,2013-09-20 12:11:00,
2013-09-20 08:16:00,70.1,69.5,29.82,West,260,5.3,5.3,98,0.00,,---,0.09,VWS V14.01,2013-09-20 12:16:00,
2013-09-20 08:21:00,70.1,69.5,29.82,West,260,4.6,4.6,98,0.00,,---,0.09,VWS V14.01,2013-09-20 12:21:00,
2013-09-20 08:26:00,70.1,69.5,29.82,West,260,3.6,3.6,98,0.00,,---,0.09,VWS V14.01,2013-09-20 12:26:00,
2013-09-20 08:31:00,70.1,69.5,29.82,West,260,4.0,4.0,98,0.00,,---,0.09,VWS V14.01,2013-09-20 12:31:00,
2013-09-20 08:36:00,70.1,69.5,29.82,SE,125,2.0,2.0,98,0.00,,---,0.09,VWS V14.01,2013-09-20 12:36:00,
2013-09-20 08:41:00,70.1,69.5,29.82,WNW,282,3.6,3.6,98,0.00,,---,0.09,VWS V14.01,2013-09-20 12:41:00,
2013-09-20 08:46:00,70.1,69.2,29.82,West,260,0.0,3.6,97,0.00,,---,0.09,VWS V14.01,2013-09-20 12:46:00,
2013-09-20 08:51:00,70.1,69.2,29.82,SW,215,0.0,0.0,97,0.00,,---,0.09,VWS V14.01,2013-09-20 12:51:00,
2013-09-20 08:56:00,69.9,69.0,29.82,West,260,5.3,5.3,97,0.00,,---,0.09,VWS V14.01,2013-09-20 12:56:00,
2013-09-20 09:01:00,69.9,69.0,29.82,West,260,1.7,1.7,97,0.00,,---,0.09,VWS V14.01,2013-09-20 13:01:00,
2013-09-20 09:06:00,69.7,68.8,29.82,NW,305,1.7,1.7,97,0.00,,---,0.09,VWS V14.01,2013-09-20 13:06:00,
2013-09-20 09:11:00,69.7,68.8,29.82,NW,305,2.3,2.3,97,0.00,,---,0.09,VWS V14.01,2013-09-20 13:11:00,
2013-09-20 09:16:00,69.7,68.8,29.82,WNW,282,3.3,5.0,97,0.00,,---,0.09,VWS V14.01,2013-09-20 13:16:00,
2013-09-20 09:21:00,69.6,68.7,29.82,WNW,282,4.0,6.3,97,0.00,,---,0.09,VWS V14.01,2013-09-20 13:21:00,
2013-09-20 09:26:00,69.4,68.5,29.82,NW,305,0.0,3.6,97,0.00,,---,0.09,VWS V14.01,2013-09-20 13:26:00,
2013-09-20 09:31:00,69.2,68.0,29.82,WNW,282,4.3,5.0,96,0.00,,---,0.09,VWS V14.01,2013-09-20 13:31:00,
2013-09-20 09:36:00,69.2,68.0,29.82,NW,305,2.3,5.0,96,0.00,,---,0.09,VWS V14.01,2013-09-20 13:36:00,
2013-09-20 09:41:00,69.2,68.0,29.82,West,260,4.0,4.0,96,0.00,,---,0.09,VWS V14.01,2013-09-20 13:41:00,
2013-09-20 09:46:00,69.4,68.2,29.82,West,260,0.0,0.0,96,0.00,,---,0.09,VWS V14.01,2013-09-20 13:46:00,
2013-09-20 09:51:00,69.4,68.2,29.82,West,260,1.7,1.7,96,0.00,,---,0.09,VWS V14.01,2013-09-20 13:51:00,
2013-09-20 09:56:00,69.6,68.4,29.82,SW,215,6.0,6.0,96,0.00,,---,0.09,VWS V14.01,2013-09-20 13:56:00,
2013-09-20 10:01:00,69.4,67.9,29.82,NE,35,4.3,5.6,95,0.00,,---,0.09,VWS V14.01,2013-09-20 14:01:00,
2013-09-20 10:06:00,69.4,67.9,29.82,SW,215,2.3,3.6,95,0.00,,---,0.09,VWS V14.01,2013-09-20 14:06:00,
2013-09-20 10:11:00,69.4,67.6,29.82,NW,305,1.7,2.3,94,0.00,,---,0.09,VWS V14.01,2013-09-20 14:11:00,
2013-09-20 10:16:00,69.2,67.4,29.82,SW,215,3.6,3.6,94,0.00,,---,0.09,VWS V14.01,2013-09-20 14:16:00,
2013-09-20 10:21:00,69.2,67.7,29.82,SW,215,3.0,4.3,95,0.00,,---,0.09,VWS V14.01,2013-09-20 14:21:00,
2013-09-20 10:27:00,69.2,67.7,29.82,West,260,2.3,2.3,95,0.00,,---,0.09,VWS V14.01,2013-09-20 14:27:00,
2013-09-20 10:32:00,69.2,67.4,29.82,West,260,3.6,5.6,94,0.00,,---,0.09,VWS V14.01,2013-09-20 14:32:00,
2013-09-20 10:37:00,69.2,67.4,29.82,NW,305,2.0,2.0,94,0.00,,---,0.09,VWS V14.01,2013-09-20 14:37:00,
2013-09-20 10:42:00,69.2,67.4,29.82,NW,305,0.0,0.0,94,0.00,,---,0.09,VWS V14.01,2013-09-20 14:42:00,
2013-09-20 10:47:00,69.4,67.3,29.82,SW,215,0.0,5.0,93,0.00,,---,0.09,VWS V14.01,2013-09-20 14:47:00,
2013-09-20 10:52:00,69.4,67.6,29.82,West,260,3.0,3.0,94,0.00,,---,0.09,VWS V14.01,2013-09-20 14:52:00,
2013-09-20 10:57:00,69.6,67.4,29.82,West,260,3.3,3.3,93,0.00,,---,0.09,VWS V14.01,2013-09-20 14:57:00,
2013-09-20 11:02:00,69.4,67.3,29.82,SW,215,3.6,3.6,93,0.00,,---,0.09,VWS V14.01,2013-09-20 15:02:00,
2013-09-20 11:07:00,69.4,66.6,29.82,WNW,282,2.0,5.0,91,0.00,,---,0.09,VWS V14.01,2013-09-20 15:07:00,
2013-09-20 11:12:00,69.4,67.0,29.82,WNW,282,2.3,2.3,92,0.00,,---,0.09,VWS V14.01,2013-09-20 15:12:00,
2013-09-20 11:17:00,69.4,67.0,29.82,SW,215,3.6,5.3,92,0.00,,---,0.09,VWS V14.01,2013-09-20 15:17:00,
2013-09-20 11:22:00,69.4,67.0,29.82,NW,305,3.6,3.6,92,0.00,,---,0.09,VWS V14.01,2013-09-20 15:22:00,
2013-09-20 11:27:00,69.2,66.5,29.82,West,260,2.3,2.3,91,0.00,,---,0.09,VWS V14.01,2013-09-20 15:27:00,
2013-09-20 11:32:00,69.0,66.6,29.82,West,260,3.0,3.0,92,0.00,,---,0.09,VWS V14.01,2013-09-20 15:32:00,
2013-09-20 11:37:00,69.0,66.6,29.82,SW,215,3.0,3.0,92,0.00,,---,0.09,VWS V14.01,2013-09-20 15:37:00,
2013-09-20 11:42:00,69.2,66.8,29.82,West,260,1.3,1.3,92,0.00,,---,0.09,VWS V14.01,2013-09-20 15:42:00,
2013-09-20 11:47:00,69.6,67.1,29.82,West,260,3.0,4.6,92,0.00,,---,0.09,VWS V14.01,2013-09-20 15:47:00,
2013-09-20 11:52:00,69.9,66.9,29.82,West,260,2.3,2.3,90,0.00,,---,0.09,VWS V14.01,2013-09-20 15:52:00,
2013-09-20 11:57:00,70.1,67.4,29.82,West,260,1.7,3.6,91,0.00,,---,0.09,VWS V14.01,2013-09-20 15:57:00,
2013-09-20 12:02:00,69.9,67.2,29.82,West,260,0.0,0.0,91,0.00,,---,0.09,VWS V14.01,2013-09-20 16:02:00,
2013-09-20 12:07:00,70.1,67.4,29.82,West,260,5.6,5.6,91,0.00,,---,0.09,VWS V14.01,2013-09-20 16:07:00,
2013-09-20 12:12:00,70.3,67.2,29.82,NW,305,2.0,4.3,90,0.00,,---,0.09,VWS V14.01,2013-09-20 16:12:00,
2013-09-20 12:17:00,70.3,67.2,29.82,SE,125,5.6,5.6,90,0.00,,---,0.09,VWS V14.01,2013-09-20 16:17:00,
2013-09-20 12:22:00,69.9,66.5,29.82,East,80,5.0,5.0,89,0.00,,---,0.09,VWS V14.01,2013-09-20 16:22:00,
2013-09-20 12:27:00,69.7,66.7,29.82,WNW,282,2.3,2.3,90,0.00,,---,0.09,VWS V14.01,2013-09-20 16:27:00,
2013-09-20 12:32:00,69.6,66.2,29.82,West,260,2.0,2.0,89,0.00,,---,0.09,VWS V14.01,2013-09-20 16:32:00,
2013-09-20 12:37:00,69.6,66.2,29.82,West,260,1.3,2.0,89,0.00,,---,0.09,VWS V14.01,2013-09-20 16:37:00,
2013-09-20 12:42:00,69.6,66.2,29.82,West,260,1.3,1.3,89,0.00,,---,0.09,VWS V14.01,2013-09-20 16:42:00,
2013-09-20 12:47:00,69.6,66.2,29.82,NE,35,1.3,1.3,89,0.00,,---,0.09,VWS V14.01,2013-09-20 16:47:00,
2013-09-20 12:52:00,69.4,66.3,29.82,NW,305,1.3,1.3,90,0.00,,---,0.09,VWS V14.01,2013-09-20 16:52:00,
2013-09-20 12:57:00,69.4,66.3,29.82,NW,305,1.3,1.3,90,0.00,,---,0.09,VWS V14.01,2013-09-20 16:57:00,
2013-09-20 13:02:00,69.4,66.0,29.82,NW,305,1.3,1.3,89,0.00,,---,0.09,VWS V14.01,2013-09-20 17:02:00,
2013-09-20 13:07:00,69.4,66.3,29.82,West,260,1.7,1.7,90,0.00,,---,0.09,VWS V14.01,2013-09-20 17:07:00,
2013-09-20 13:12:00,69.4,66.3,29.82,NW,305,2.3,2.3,90,0.00,,---,0.09,VWS V14.01,2013-09-20 17:12:00,
2013-09-20 13:18:00,69.2,66.2,29.82,NW,305,2.3,2.3,90,0.00,,---,0.09,VWS V14.01,2013-09-20 17:18:00,
2013-09-20 13:23:00,69.4,66.0,29.82,North,350,7.0,7.0,89,0.00,,---,0.09,VWS V14.01,2013-09-20 17:23:00,
2013-09-20 13:28:00,69.6,66.2,29.82,SW,215,1.3,2.3,89,0.00,,---,0.09,VWS V14.01,2013-09-20 17:28:00,
2013-09-20 13:33:00,69.7,66.0,29.79,West,260,5.6,5.6,88,0.00,,---,0.09,VWS V14.01,2013-09-20 17:33:00,
2013-09-20 13:38:00,69.9,66.2,29.79,SW,215,5.0,5.0,88,0.00,,---,0.09,VWS V14.01,2013-09-20 17:38:00,
2013-09-20 13:43:00,69.7,66.0,29.79,West,260,3.0,3.0,88,0.00,,---,0.09,VWS V14.01,2013-09-20 17:43:00,
2013-09-20 13:48:00,69.6,65.8,29.79,West,260,3.0,3.0,88,0.00,,---,0.09,VWS V14.01,2013-09-20 17:48:00,
2013-09-20 13:53:00,69.7,66.0,29.79,West,260,3.0,3.0,88,0.00,,---,0.09,VWS V14.01,2013-09-20 17:53:00,
2013-09-20 13:58:00,69.7,66.0,29.79,West,260,3.0,3.0,88,0.00,,---,0.09,VWS V14.01,2013-09-20 17:58:00,
2013-09-20 14:03:00,69.7,66.0,29.79,West,260,3.0,3.0,88,0.00,,---,0.09,VWS V14.01,2013-09-20 18:03:00,
2013-09-20 14:08:00,69.9,66.2,29.79,West,260,3.0,3.0,88,0.00,,---,0.09,VWS V14.01,2013-09-20 18:08:00,
2013-09-20 14:13:00,69.9,66.2,29.79,SW,215,4.0,4.0,88,0.00,,---,0.09,VWS V14.01,2013-09-20 18:13:00,
2013-09-20 14:18:00,70.1,66.4,29.79,SW,215,4.0,4.0,88,0.00,,---,0.09,VWS V14.01,2013-09-20 18:18:00,
2013-09-20 14:23:00,70.3,66.6,29.79,West,260,3.0,3.0,88,0.00,,---,0.09,VWS V14.01,2013-09-20 18:23:00,
2013-09-20 14:28:00,70.1,66.1,29.79,West,260,3.0,3.0,87,0.00,,---,0.09,VWS V14.01,2013-09-20 18:28:00,
2013-09-20 14:33:00,70.1,66.1,29.79,West,260,3.0,3.0,87,0.00,,---,0.09,VWS V14.01,2013-09-20 18:33:00,
2013-09-20 14:38:00,69.9,66.2,29.79,West,260,3.0,3.0,88,0.00,,---,0.09,VWS V14.01,2013-09-20 18:38:00,
2013-09-20 14:43:00,69.9,65.9,29.79,NW,305,3.0,3.0,87,0.00,,---,0.09,VWS V14.01,2013-09-20 18:43:00,
2013-09-20 14:48:00,69.7,65.7,29.79,NW,305,3.0,3.0,87,0.00,,---,0.09,VWS V14.01,2013-09-20 18:48:00,
2013-09-20 14:53:00,69.7,66.0,29.79,SW,215,0.0,0.0,88,0.00,,---,0.09,VWS V14.01,2013-09-20 18:53:00,
2013-09-20 14:58:00,69.6,65.8,29.79,SW,215,0.0,0.0,88,0.00,,---,0.09,VWS V14.01,2013-09-20 18:58:00,
2013-09-20 15:03:00,69.6,65.8,29.79,WNW,282,0.0,0.0,88,0.00,,---,0.09,VWS V14.01,2013-09-20 19:03:00,
2013-09-20 15:08:00,69.4,65.7,29.79,SE,125,3.3,3.3,88,0.00,,---,0.09,VWS V14.01,2013-09-20 19:08:00,
2013-09-20 15:13:00,69.4,66.0,29.76,NW,305,0.0,1.7,89,0.00,,---,0.09,VWS V14.01,2013-09-20 19:13:00,
2013-09-20 15:18:00,69.2,65.8,29.76,West,260,0.0,0.0,89,0.00,,---,0.09,VWS V14.01,2013-09-20 19:18:00,
2013-09-20 15:23:00,69.4,66.0,29.76,West,260,0.0,0.0,89,0.00,,---,0.09,VWS V14.01,2013-09-20 19:23:00,
2013-09-20 15:28:00,69.4,66.0,29.79,West,260,3.0,3.0,89,0.00,,---,0.09,VWS V14.01,2013-09-20 19:28:00,
2013-09-20 15:34:00,69.4,66.0,29.79,SW,215,3.3,3.3,89,0.00,,---,0.09,VWS V14.01,2013-09-20 19:34:00,
2013-09-20 15:39:00,69.0,66.0,29.79,NW,305,0.0,0.0,90,0.00,,---,0.09,VWS V14.01,2013-09-20 19:39:00,
2013-09-20 15:44:00,68.7,65.6,29.76,West,260,1.7,2.0,90,0.00,,---,0.09,VWS V14.01,2013-09-20 19:44:00,
2013-09-20 15:49:00,68.7,65.9,29.76,SW,215,0.0,0.0,91,0.00,,---,0.09,VWS V14.01,2013-09-20 19:49:00,
2013-09-20 15:54:00,68.7,65.9,29.76,West,260,0.0,0.0,91,0.00,,---,0.09,VWS V14.01,2013-09-20 19:54:00,
2013-09-20 15:59:00,68.8,66.4,29.76,West,260,0.0,1.3,92,0.00,,---,0.09,VWS V14.01,2013-09-20 19:59:00,
2013-09-20 16:04:00,69.0,66.6,29.76,West,260,0.0,3.3,92,0.00,,---,0.09,VWS V14.01,2013-09-20 20:04:00,
2013-09-20 16:09:00,69.2,66.5,29.76,West,260,0.0,0.0,91,0.00,,---,0.09,VWS V14.01,2013-09-20 20:09:00,
2013-09-20 16:14:00,69.2,66.8,29.76,West,260,0.0,0.0,92,0.00,,---,0.09,VWS V14.01,2013-09-20 20:14:00,
2013-09-20 16:19:00,69.4,66.6,29.76,SW,215,0.0,4.0,91,0.00,,---,0.09,VWS V14.01,2013-09-20 20:19:00,
2013-09-20 16:24:00,69.2,66.5,29.76,West,260,2.3,2.3,91,0.00,,---,0.09,VWS V14.01,2013-09-20 20:24:00,
2013-09-20 16:29:00,69.2,66.5,29.76,SW,215,3.0,3.0,91,0.00,,---,0.09,VWS V14.01,2013-09-20 20:29:00,
2013-09-20 16:34:00,69.2,66.5,29.76,West,260,2.0,2.0,91,0.00,,---,0.09,VWS V14.01,2013-09-20 20:34:00,
2013-09-20 16:39:00,69.2,66.5,29.76,SW,215,2.3,2.3,91,0.00,,---,0.09,VWS V14.01,2013-09-20 20:39:00,
2013-09-20 16:44:00,69.2,66.5,29.76,SW,215,0.0,1.3,91,0.00,,---,0.09,VWS V14.01,2013-09-20 20:44:00,
2013-09-20 16:49:00,69.2,66.5,29.76,West,260,1.7,5.3,91,0.00,,---,0.09,VWS V14.01,2013-09-20 20:49:00,
2013-09-20 16:54:00,69.2,66.5,29.76,NW,305,2.3,2.3,91,0.00,,---,0.09,VWS V14.01,2013-09-20 20:54:00,
2013-09-20 16:59:00,69.2,66.5,29.76,SW,215,2.0,2.0,91,0.00,,---,0.09,VWS V14.01,2013-09-20 20:59:00,
2013-09-20 17:04:00,69.2,66.5,29.76,SE,125,1.7,1.7,91,0.00,,---,0.09,VWS V14.01,2013-09-20 21:04:00,
2013-09-20 17:09:00,69.0,66.3,29.76,SW,215,1.3,1.3,91,0.00,,---,0.09,VWS V14.01,2013-09-20 21:09:00,
2013-09-20 17:14:00,69.0,66.3,29.76,SW,215,2.0,2.3,91,0.00,,---,0.09,VWS V14.01,2013-09-20 21:14:00,
2013-09-20 17:19:00,69.0,66.3,29.76,SW,215,3.0,3.6,91,0.00,,---,0.09,VWS V14.01,2013-09-20 21:19:00,
2013-09-20 17:24:00,69.0,66.3,29.76,SW,215,0.0,0.0,91,0.00,,---,0.09,VWS V14.01,2013-09-20 21:24:00,
2013-09-20 17:29:00,69.2,66.5,29.76,SW,215,2.0,2.0,91,0.00,,---,0.09,VWS V14.01,2013-09-20 21:29:00,
2013-09-20 17:34:00,69.0,66.3,29.76,SW,215,1.3,2.0,91,0.00,,---,0.09,VWS V14.01,2013-09-20 21:34:00,
2013-09-20 17:39:00,69.0,66.3,29.76,WSW,238,0.0,3.0,91,0.00,,---,0.09,VWS V14.01,2013-09-20 21:39:00,
2013-09-20 17:44:00,69.0,66.3,29.76,SE,125,3.0,3.0,91,0.00,,---,0.09,VWS V14.01,2013-09-20 21:44:00,
2013-09-20 17:49:00,69.0,66.3,29.76,West,260,0.0,0.0,91,0.00,,---,0.09,VWS V14.01,2013-09-20 21:49:00,
2013-09-20 17:54:00,69.0,66.6,29.76,SW,215,1.3,1.3,92,0.00,,---,0.09,VWS V14.01,2013-09-20 21:54:00,
2013-09-20 17:59:00,68.8,66.4,29.76,SW,215,0.0,0.0,92,0.00,,---,0.09,VWS V14.01,2013-09-20 21:59:00,
2013-09-20 18:04:00,69.0,66.6,29.76,SW,215,0.0,0.0,92,0.00,,---,0.09,VWS V14.01,2013-09-20 22:04:00,
2013-09-20 18:09:00,68.8,66.4,29.76,West,260,2.3,2.3,92,0.00,,---,0.09,VWS V14.01,2013-09-20 22:09:00,
2013-09-20 18:14:00,68.8,66.4,29.76,NW,305,2.3,2.3,92,0.00,,---,0.09,VWS V14.01,2013-09-20 22:14:00,
2013-09-20 18:19:00,68.8,66.4,29.76,West,260,0.0,0.0,92,0.00,,---,0.09,VWS V14.01,2013-09-20 22:19:00,
2013-09-20 18:25:00,68.7,66.2,29.76,West,260,2.3,2.3,92,0.00,,---,0.09,VWS V14.01,2013-09-20 22:25:00,
2013-09-20 18:30:00,68.7,66.2,29.76,SW,215,0.0,0.0,92,0.00,,---,0.09,VWS V14.01,2013-09-20 22:30:00,
2013-09-20 18:35:00,68.7,66.2,29.76,SW,215,0.0,0.0,92,0.00,,---,0.09,VWS V14.01,2013-09-20 22:35:00,
2013-09-20 18:40:00,68.7,66.2,29.76,SW,215,0.0,0.0,92,0.00,,---,0.09,VWS V14.01,2013-09-20 22:40:00,
2013-09-20 18:45:00,68.5,66.1,29.76,SW,215,0.0,0.0,92,0.00,,---,0.09,VWS V14.01,2013-09-20 22:45:00,
2013-09-20 18:50:00,68.5,66.1,29.76,SW,215,0.0,0.0,92,0.00,,---,0.09,VWS V14.01,2013-09-20 22:50:00,
2013-09-20 18:55:00,68.5,66.1,29.76,SW,215,0.0,0.0,92,0.00,,---,0.09,VWS V14.01,2013-09-20 22:55:00,
2013-09-20 19:00:00,68.3,65.9,29.76,SW,215,0.0,0.0,92,0.00,,---,0.09,VWS V14.01,2013-09-20 23:00:00,
2013-09-20 19:05:00,68.3,65.9,29.76,SW,215,0.0,0.0,92,0.00,,---,0.09,VWS V14.01,2013-09-20 23:05:00,
2013-09-20 19:10:00,68.1,65.7,29.76,SW,215,0.0,0.0,92,0.00,,---,0.09,VWS V14.01,2013-09-20 23:10:00,
2013-09-20 19:15:00,68.1,65.7,29.76,SW,215,0.0,0.0,92,0.00,,---,0.09,VWS V14.01,2013-09-20 23:15:00,
2013-09-20 19:20:00,67.9,65.5,29.76,SW,215,0.0,0.0,92,0.00,,---,0.09,VWS V14.01,2013-09-20 23:20:00,
2013-09-20 19:25:00,67.9,65.8,29.76,WNW,282,0.0,0.0,93,0.00,,---,0.09,VWS V14.01,2013-09-20 23:25:00,
2013-09-20 19:30:00,67.8,65.7,29.76,WNW,282,0.0,0.0,93,0.00,,---,0.09,VWS V14.01,2013-09-20 23:30:00,
2013-09-20 19:35:00,67.8,65.7,29.76,WNW,282,0.0,0.0,93,0.00,,---,0.09,VWS V14.01,2013-09-20 23:35:00,
2013-09-20 19:40:00,67.6,65.5,29.76,WNW,282,0.0,0.0,93,0.00,,---,0.09,VWS V14.01,2013-09-20 23:40:00,
2013-09-20 19:45:00,67.4,65.3,29.74,West,260,0.0,0.0,93,0.00,,---,0.09,VWS V14.01,2013-09-20 23:45:00,
2013-09-20 19:50:00,67.4,65.3,29.74,West,260,0.0,0.0,93,0.00,,---,0.09,VWS V14.01,2013-09-20 23:50:00,
2013-09-20 19:55:00,67.2,65.1,29.74,West,260,0.0,0.0,93,0.00,,---,0.09,VWS V14.01,2013-09-20 23:55:00,
2013-09-20 20:00:00,67.2,65.1,29.76,SE,125,0.0,0.0,93,0.00,,---,0.09,VWS V14.01,2013-09-21 00:00:00,
2013-09-20 20:05:00,67.0,64.9,29.76,SE,125,0.0,0.0,93,0.00,,---,0.09,VWS V14.01,2013-09-21 00:05:00,
2013-09-20 20:10:00,67.0,64.9,29.76,SE,125,0.0,0.0,93,0.00,,---,0.09,VWS V14.01,2013-09-21 00:10:00,
2013-09-20 20:15:00,66.9,64.8,29.76,SE,125,0.0,0.0,93,0.00,,---,0.09,VWS V14.01,2013-09-21 00:15:00,
2013-09-20 20:20:00,66.9,64.8,29.76,SE,125,0.0,0.0,93,0.00,,---,0.09,VWS V14.01,2013-09-21 00:20:00,
2013-09-20 20:25:00,66.7,64.6,29.76,SE,125,0.0,0.0,93,0.00,,---,0.09,VWS V14.01,2013-09-21 00:25:00,
2013-09-20 20:30:00,66.7,64.6,29.76,SE,125,0.0,0.0,93,0.00,,---,0.09,VWS V14.01,2013-09-21 00:30:00,
2013-09-20 20:35:00,66.5,64.4,29.76,SE,125,0.0,0.0,93,0.00,,---,0.09,VWS V14.01,2013-09-21 00:35:00,
2013-09-20 20:40:00,66.5,64.4,29.76,SW,215,0.0,0.0,93,0.00,,---,0.09,VWS V14.01,2013-09-21 00:40:00,
2013-09-20 20:46:00,66.5,64.4,29.76,SW,215,0.0,0.0,93,0.00,,---,0.09,VWS V14.01,2013-09-21 00:46:00,
2013-09-20 20:51:00,66.3,64.2,29.76,SW,215,0.0,0.0,93,0.00,,---,0.09,VWS V14.01,2013-09-21 00:51:00,
2013-09-20 20:56:00,66.3,64.2,29.76,SW,215,0.0,0.0,93,0.00,,---,0.09,VWS V14.01,2013-09-21 00:56:00,
2013-09-20 21:01:00,66.3,64.2,29.76,SW,215,0.0,0.0,93,0.00,,---,0.09,VWS V14.01,2013-09-21 01:01:00,
2013-09-20 21:06:00,66.3,64.2,29.76,West,260,0.0,0.0,93,0.00,,---,0.09,VWS V14.01,2013-09-21 01:06:00,
2013-09-20 21:11:00,66.3,64.2,29.76,West,260,0.0,0.0,93,0.00,,---,0.09,VWS V14.01,2013-09-21 01:11:00,
2013-09-20 21:16:00,66.3,64.2,29.76,WNW,282,0.0,0.0,93,0.00,,---,0.09,VWS V14.01,2013-09-21 01:16:00,
2013-09-20 21:21:00,66.3,64.2,29.76,WNW,282,4.6,5.0,93,0.00,,---,0.09,VWS V14.01,2013-09-21 01:21:00,
2013-09-20 21:26:00,66.3,64.2,29.76,NW,305,3.6,3.6,93,0.00,,---,0.09,VWS V14.01,2013-09-21 01:26:00,
2013-09-20 21:31:00,66.3,63.9,29.76,West,260,3.3,4.6,92,0.00,,---,0.09,VWS V14.01,2013-09-21 01:31:00,
2013-09-20 21:36:00,66.3,63.9,29.76,West,260,4.6,4.6,92,0.00,,---,0.09,VWS V14.01,2013-09-21 01:36:00,
2013-09-20 21:41:00,66.1,63.8,29.76,NW,305,3.0,3.6,92,0.00,,---,0.09,VWS V14.01,2013-09-21 01:41:00,
2013-09-20 21:46:00,66.0,63.6,29.76,NW,305,2.0,2.0,92,0.00,,---,0.09,VWS V14.01,2013-09-21 01:46:00,
2013-09-20 21:51:00,66.0,63.3,29.76,NW,305,3.6,3.6,91,0.00,,---,0.09,VWS V14.01,2013-09-21 01:51:00,
2013-09-20 21:56:00,65.8,62.8,29.76,West,260,2.0,2.0,90,0.00,,---,0.09,VWS V14.01,2013-09-21 01:56:00,
2013-09-20 22:01:00,65.6,62.6,29.76,NW,305,3.0,5.3,90,0.00,,---,0.09,VWS V14.01,2013-09-21 02:01:00,
2013-09-20 22:06:00,65.6,62.6,29.76,North,350,2.0,3.0,90,0.00,,---,0.09,VWS V14.01,2013-09-21 02:06:00,
2013-09-20 22:11:00,65.4,62.4,29.76,NW,305,0.0,1.7,90,0.00,,---,0.09,VWS V14.01,2013-09-21 02:11:00,
2013-09-20 22:16:00,65.4,62.4,29.76,NW,305,0.0,1.3,90,0.00,,---,0.09,VWS V14.01,2013-09-21 02:16:00,
2013-09-20 22:21:00,65.4,62.4,29.76,NW,305,0.0,3.3,90,0.00,,---,0.09,VWS V14.01,2013-09-21 02:21:00,
2013-09-20 22:26:00,65.2,62.2,29.76,West,260,5.3,5.3,90,0.00,,---,0.09,VWS V14.01,2013-09-21 02:26:00,
2013-09-20 22:31:00,65.2,62.2,29.76,North,350,3.0,3.0,90,0.00,,---,0.09,VWS V14.01,2013-09-21 02:31:00,
2013-09-20 22:36:00,65.1,62.1,29.76,NW,305,4.6,4.6,90,0.00,,---,0.09,VWS V14.01,2013-09-21 02:36:00,
2013-09-20 22:41:00,65.1,62.1,29.76,NW,305,3.0,5.3,90,0.00,,---,0.09,VWS V14.01,2013-09-21 02:41:00,
2013-09-20 22:46:00,64.9,61.9,29.76,West,260,3.3,3.3,90,0.00,,---,0.09,VWS V14.01,2013-09-21 02:46:00,
2013-09-20 22:51:00,64.9,61.6,29.76,NW,305,1.3,1.3,89,0.00,,---,0.09,VWS V14.01,2013-09-21 02:51:00,
2013-09-20 22:56:00,64.9,61.6,29.76,NW,305,1.3,3.3,89,0.00,,---,0.09,VWS V14.01,2013-09-21 02:56:00,
2013-09-20 23:01:00,64.7,61.4,29.76,NW,305,3.6,5.0,89,0.00,,---,0.09,VWS V14.01,2013-09-21 03:01:00,
2013-09-20 23:06:00,64.5,61.2,29.76,NW,305,3.0,3.6,89,0.00,,---,0.09,VWS V14.01,2013-09-21 03:06:00,
2013-09-20 23:12:00,64.5,61.2,29.76,NE,35,5.0,5.0,89,0.00,,---,0.09,VWS V14.01,2013-09-21 03:12:00,
2013-09-20 23:17:00,64.3,61.0,29.76,SW,215,6.0,7.3,89,0.00,,---,0.09,VWS V14.01,2013-09-21 03:17:00,
2013-09-20 23:22:00,64.2,60.9,29.76,NW,305,4.3,5.0,89,0.00,,---,0.09,VWS V14.01,2013-09-21 03:22:00,
2013-09-20 23:27:00,64.0,60.7,29.76,NW,305,6.0,6.0,89,0.00,,---,0.09,VWS V14.01,2013-09-21 03:27:00,
2013-09-20 23:32:00,64.0,60.7,29.76,NW,305,4.6,4.6,89,0.00,,---,0.09,VWS V14.01,2013-09-21 03:32:00,
2013-09-20 23:37:00,63.8,60.2,29.76,NW,305,4.3,4.3,88,0.00,,---,0.09,VWS V14.01,2013-09-21 03:37:00,
2013-09-20 23:42:00,63.6,60.0,29.76,NW,305,2.3,2.3,88,0.00,,---,0.09,VWS V14.01,2013-09-21 03:42:00,
2013-09-20 23:47:00,63.6,60.3,29.76,NW,305,1.3,1.7,89,0.00,,---,0.09,VWS V14.01,2013-09-21 03:47:00,
2013-09-20 23:52:00,63.4,60.2,29.76,NW,305,2.0,2.0,89,0.00,,---,0.09,VWS V14.01,2013-09-21 03:52:00,
2013-09-20 23:57:00,63.4,59.8,29.76,NE,35,3.3,3.6,88,0.00,,---,0.09,VWS V14.01,2013-09-21 03:57:00,